Location: Newark
(44.9333°N, 0.5667°E)
Time: 20:46:02
(UTC+00:00)

N. Korean satellite - Visible Passes

Search period start: 14 December 2019 00:00
Search period end: 24 December 2019 00:00
Orbit: 455 x 507 km, 97.2° (Epoch: 13 December)

Date Brightness Start Highest point End Pass type
(mag) Time Alt. Az. Time Alt. Az. Time Alt. Az.
14 Dec 9.7 04:55:24 10° NE 04:57:31 15° E 04:59:37 10° SE visible
14 Dec 7.1 06:27:51 10° N 06:31:03 34° WNW 06:34:12 10° SW visible
14 Dec 6.9 17:04:18 10° S 17:07:59 74° WSW 17:11:40 10° NNW visible
15 Dec 6.3 06:02:12 10° N 06:05:42 73° WNW 06:09:07 10° SSW visible
15 Dec 10.1 18:14:58 10° WSW 18:16:16 11° W 18:17:34 10° WNW visible
16 Dec 7.4 05:36:50 10° NNE 05:40:14 50° E 05:43:35 10° S visible
16 Dec 9.3 17:47:42 10° SSW 17:50:37 22° W 17:53:33 10° NW visible
17 Dec 8.9 05:11:48 10° NE 05:14:41 24° E 05:17:31 10° SSE visible
17 Dec 7.7 06:45:16 10° NNW 06:47:59 21° WNW 06:50:39 10° WSW visible
17 Dec 7.9 17:21:32 10° S 17:25:05 44° W 17:28:35 10° NNW visible
18 Dec 9.9 04:47:38 10° ENE 04:49:02 12° E 04:50:26 10° ESE visible
18 Dec 6.8 06:19:22 10° N 06:22:41 42° WNW 06:25:57 10° SW visible
18 Dec 6.6 16:55:56 10° SSE 16:59:36 87° ENE 17:03:15 10° NNW visible
19 Dec 6.4 05:53:48 10° NNE 05:57:17 87° ESE 06:00:43 10° SSW visible
19 Dec 9.9 18:05:48 10° SW 18:07:48 14° W 18:09:48 10° WNW visible
20 Dec 7.9 05:28:31 10° NNE 05:31:48 38° E 05:35:01 10° SSE visible
20 Dec 9.0 17:39:02 10° SSW 17:42:11 27° W 17:45:19 10° NW visible
21 Dec 9.3 05:03:40 10° NE 05:06:12 19° E 05:08:43 10° SE visible
21 Dec 7.4 06:36:41 10° NNW 06:39:37 26° WNW 06:42:31 10° SW visible
21 Dec 7.4 17:13:04 10° S 17:16:40 56° W 17:20:13 10° NNW visible
22 Dec 6.5 06:10:52 10° N 06:14:16 54° WNW 06:17:37 10° SSW visible
22 Dec 6.5 16:47:36 10° SSE 16:51:13 68° ENE 16:54:48 10° N visible
23 Dec 6.8 05:45:24 10° NNE 05:48:50 67° E 05:52:14 10° S visible
23 Dec 9.7 17:56:52 10° SW 17:59:20 17° W 18:01:46 10° NW visible
